Weather History for Nome, AK

Change the Weather History Date:

Thursday, March 6, 2014

  Actual Average Record
Temperature  
Mean Temperature 11 °F -  
Max Temperature 18 °F 18 °F 39 °F (1984)
Min Temperature 4 °F - -37 °F (1971)
Degree Days  
Heating Degree Days 54 56  
Month to date heating degree days 327 336  
Since 1 July heating degree days 8473 9618  
Cooling Degree Days 0    
Month to date cooling degree days 0  
Year to date cooling degree days 0  
Moisture  
Dew Point -3 °F    
Average Humidity 0    
Maximum Humidity 0    
Minimum Humidity 0    
Precipitation  
Precipitation 0.00 in 0.03 in 0.24 in (1921)
Month to date precipitation 0.00 0.15  
Year to date precipitation 2.17 2.02  
Snow  
Snow 0.00 in 0.30 in 2.20 in (1954)
Month to date snowfall 0.0 2.1  
Since 1 July snowfall 54.3 58.8  
Snow Depth 7.00 in    
Sea Level Pressure  
Sea Level Pressure 30.08 in    
Wind  
Wind Speed 16 mph (North)    
Max Wind Speed 32 mph    
Max Gust Speed 38 mph    
Visibility 10 miles    
Events Snow    
T = Trace of Precipitation, MM = Missing Value Source: NWS Daily Summary

Daily Weather History Graph

Daily Weather History Graph

Search for Another Location

Airport:

Trip Planner

Search our weather history database for the weather conditions in past years. The results will help you decide how hot, cold, wet, or windy it might be!

Date:

Astronomy

Mar. 06, 2014 Rise Set
Actual Time 8:51 AM AKST 7:35 PM AKST
Civil Twilight 8:03 AM AKST 8:24 PM AKST
Nautical Twilight 7:07 AM AKST 9:20 PM AKST
Astronomical Twilight 6:08 AM AKST 10:20 PM AKST
Moon 10:01 AM AKST (3/6) 2:58 AM AKST (3/6)
Length of Visible Light 12h 20m
Length of Day
10h 44m
Waxing Crescent, 34% of the Moon is Illuminated
Mar 6
Waxing Crescent
Mar 8
First Quarter
Mar 16
Full
Mar 23
Last Quarter
Mar 30
New

Hourly Weather History & Observations

Time (AKST) Temp. Windchill Dew Point Humidity Pressure Visibility Wind Dir Wind Speed Gust Speed Precip Events Conditions
12:53 AM 7.0 °F -9.1 °F -6.0 °F 55% 30.11 in 10.0 mi WNW 12.7 mph 21.9 mph N/A   Partly Cloudy
1:53 AM 6.1 °F -4.3 °F -6.0 °F 58% 30.12 in 10.0 mi WSW 5.8 mph - N/A   Partly Cloudy
2:53 AM 3.9 °F - -6.0 °F 64% 30.12 in 10.0 mi Calm Calm - N/A   Clear
3:38 AM 6.1 °F -6.8 °F -6.0 °F 58% 30.11 in 10.0 mi NNW 8.1 mph 17.3 mph N/A   Clear
3:53 AM 6.1 °F -6.8 °F -6.0 °F 58% 30.12 in 10.0 mi NW 8.1 mph - N/A   Clear
4:53 AM 7.0 °F -14.0 °F -7.1 °F 53% 30.11 in 10.0 mi NNE 23.0 mph - N/A   Clear
5:53 AM 9.0 °F -2.2 °F -8.0 °F 46% 30.12 in 10.0 mi NW 6.9 mph - N/A   Clear
6:53 AM 7.0 °F -16.3 °F -7.1 °F 53% 30.09 in 10.0 mi NNE 29.9 mph - N/A   Clear
7:53 AM 8.1 °F -12.6 °F -7.1 °F 50% 30.04 in 10.0 mi North 23.0 mph - N/A   Clear
8:53 AM 9.0 °F -10.0 °F -7.1 °F 48% 30.08 in 10.0 mi North 19.6 mph - N/A   Clear
9:53 AM 10.9 °F -0.8 °F -6.0 °F 47% 30.13 in 10.0 mi North 8.1 mph 23.0 mph N/A   Clear
10:53 AM 12.9 °F -3.9 °F -6.0 °F 43% 30.10 in 10.0 mi NW 17.3 mph 26.5 mph N/A   Clear
11:53 AM 14.0 °F -1.4 °F -4.0 °F 45% 30.10 in 10.0 mi NW 15.0 mph - N/A   Clear
12:53 PM 15.1 °F 1.1 °F -0.9 °F 49% 30.11 in 10.0 mi North 12.7 mph - N/A   Clear
1:53 PM 15.1 °F -0.1 °F -0.9 °F 49% 30.09 in 10.0 mi NNE 15.0 mph - N/A   Partly Cloudy
2:53 PM 17.1 °F 7.6 °F -0.0 °F 47% 30.09 in 10.0 mi NNW 6.9 mph - N/A   Partly Cloudy
3:53 PM 17.1 °F 1.5 °F 1.0 °F 50% 30.06 in 10.0 mi North 17.3 mph - N/A   Partly Cloudy
4:53 PM 18.0 °F 6.9 °F 1.0 °F 48% 30.06 in 10.0 mi NE 9.2 mph - N/A   Partly Cloudy
5:53 PM 17.1 °F 0.1 °F 1.0 °F 50% 30.06 in 10.0 mi NE 20.7 mph 29.9 mph N/A Snow Low Drifting Snow
6:53 PM 15.1 °F -1.6 °F -0.9 °F 49% 30.04 in 10.0 mi NE 18.4 mph 26.5 mph N/A Snow Low Drifting Snow
7:53 PM 14.0 °F -4.7 °F -2.0 °F 49% 30.02 in 10.0 mi NE 23.0 mph 27.6 mph N/A Snow Low Drifting Snow
8:53 PM 14.0 °F -5.5 °F -0.9 °F 52% 30.01 in 10.0 mi NE 25.3 mph 34.5 mph N/A Snow Low Drifting Snow
9:53 PM 14.0 °F -5.1 °F -0.0 °F 54% 30.00 in 10.0 mi NE 24.2 mph 32.2 mph N/A Snow Low Drifting Snow
10:53 PM 14.0 °F -5.8 °F -0.0 °F 54% 30.00 in 10.0 mi NE 26.5 mph 32.2 mph N/A Snow Low Drifting Snow
11:53 PM 16.0 °F 2.9 °F -2.0 °F 45% 30.01 in 10.0 mi NE 11.5 mph - N/A Snow Low Drifting Snow